Showing default

YAOGAN-35 05B, 53761

Orbit data source: Space-Track

YAOGAN-35 05B, 53761 is a payload satellite owned by PLA GAD (CN) in LEO that was launched on Tue, 06 Sep 2022 UTC via a CHANG ZHENG 2D launch vehicle from the Xichang Space Center, China (XSC). Payload-class satellites include a variety of spacecraft equipped with specific instruments for various scientific and technological missions. These include communications satellites like Starlink; space stations such as the ISS; scientific satellites like the Hubble; Earth observation satellites from companies like Planet Labs, Umbra, and HawkEye 360; GPS; miniature CubeSats for education and research; and military/defense satellites.

Loading next visibility...
Identifier
53761, 2022-109B
Orbit
LEO
Country
Flag of CNCN / PRC
Related business
Manufacturer
DFH
Mission
Operational Defense Sigint
Bus & Motor
Unknown
Mass
~300 kg wet, ~300 kg dry
Launch date (UTC)
2022-09-06 (4 years ago)
Launch vehicle
CHANG ZHENG 2D
Launch site
Xichang Space Center, China (XSC)
Object type
Payload
Rocket body
Debris
Shape & HBR
Box + 2 Pan, 2.5 m
Radar Cross Section
11.063 m², Large (>1 m²)

Expand to show TLE details & history
Last TLE update: 1 day ago

TLE from 1 day ago
0 YAOGAN-35 05B
1 53761U 22109B   26172.50174847  .00022935  00000-0  57511-3 0  9993
2 53761  34.9779 281.4264 0004425 218.6449 141.3954 15.39091579211537
Epoch: 2026-06-21T12:02Z
TLE epoch observation values (Epoch: 2026-06-21T12:02:31.067Z)
Latitude
-0.00003°
Longitude
-168.90419°
Altitude
450.052 km
Speed
7.643 km/s
True Right ascension
18h 45m 42s
True Declination
0° 00' 00"
Sunlit
Object was in full shadow at epoch
Visualization orbit readout
Latitude
Unknown
Longitude
Unknown
Altitude
Unknown
Speed
Unknown
Apparent Right ascension
Unknown
Apparent Declination
Unknown
Sunlit
N/A
Visualization observer readout
Local Sidereal Time
23:20:39
Azimuth
Unknown
Elevation
Unknown
Doppler factor
Unknown
Orbital elements
Apogee altitude
455.093 km
Perigee altitude
449.048 km
Semi-major axis
6,830.208 km
Eccentricity
0.00044
Inclination
34.9779°
RAAN
281.4264°
Arg. of periapsis
218.6449°
True anomaly
141.42702°
Mean anomaly
141.3954°
Eccentric anomaly
141.41121°
Mean motion
3.84496 °/min
Orbital period
93.63 mins
BSTAR
0.00057511
Loading maneuver chart data...
Computing Atmospheric mass density...
Loading historical data...
Loading historical data...
Loading historical data...
Loading historical data...
Loading historical data...
Loading historical data...
Loading historical data...
Other satellites on launch #109 in the year 2022 (2022-09-06 UTC)

Documentation

Showing up to 5 results
|